Regional Weather Roundup
Issued by NWS Midland/Odessa, TX

Skip options and go directly to product.
Home | Oldest Version | Previous Version | Current Version | All | Text Only | Save Text | Print | Product List | Glossary Off

Skip product version selection by date and time.   

705
ASUS44 KMAF 240410
RWRMAF
MIDLAND AREA WEATHER ROUNDUP
NATIONAL WEATHER SERVICE MIDLAND TX
1100 PM CDT WED APR 23 2014

...IN SOUTHWEST TEXAS AND SOUTHEAST NEW MEXICO...

CITY           SKY/WX    TMP DP  RH WIND       PRES   REMARKS
ALPINE         MOCLDY    68  16  13 SW10      29.92R
ANDREWS        FAIR      71  27  19 S8        29.74R
ARTESIA        CLEAR     64  23  20 SW10      29.76R
BIG SPRING     PTCLDY    79  56  45 S14       29.73R
CARLSBAD       CLEAR     65  28  24 W8        29.74R
DRYDEN           N/A     78  56  46 NE9       29.73R
FORT STOCKTON  MOCLDY    74  55  51 S14       29.76R
GUAD PASS      CLEAR     69  18  14 W39G49    29.85S
HOBBS          CLEAR     68  18  14 W8        29.76R
MARFA          MOCLDY    59  16  18 NW5       29.91R
MIDLAND AIRPK  PTCLDY    79  54  42 S15G21    29.73R
MIDLAND INTL   PTCLDY    78  55  44 S18       29.73R
ODESSA           N/A    N/A N/A N/A MISG      29.74R
PECOS          PTCLDY    64  43  45 W10       29.72R
PRESIDIO       FAIR      78  14   9 CALM      29.75R
SEMINOLE       CLEAR     67  25  20 W7        29.74R
SNYDER         CLEAR     77  54  45 S16G22    29.70R
WINK           CLEAR     73  25  16 W7        29.71R
$$
...OTHER STATIONS IN TEXAS...

CITY           SKY/WX    TMP DP  RH WIND       PRES   REMARKS
ABILENE        MOCLDY    72  61  68 SE16      29.70R
AMARILLO       CLEAR     68  18  14 SW13      29.64R
AUSTIN         CLOUDY    72  63  73 SE17      29.80F
BROWNSVILLE    CLEAR     73  69  87 SE16G23   29.82F
CORPUS CHRISTI MOCLDY    73  68  84 SE18G28   29.84S
DALLAS FTW     MOCLDY    76  58  53 S17G23    29.75F
DEL RIO        MOCLDY    72  61  68 S3        29.72R
EL PASO        PTCLDY    76  21  12 NW21G33   29.84R
HOUSTON INT    PTCLDY    70  65  84 S8        29.87S
LUBBOCK        CLEAR     75  20  12 SW16      29.67R
SAN ANGELO     CLEAR     78  57  48 S15G23    29.70R
SAN ANTONIO    CLOUDY    73  63  70 SE21G35   29.78F
WACO           CLOUDY    74  62  66 S18G24    29.78S
WICHITA FALLS  NOT AVBL
$$
...OTHER LOCATIONS IN NEW MEXICO...

CITY           SKY/WX    TMP DP  RH WIND       PRES   REMARKS
ALAMAGORDO     PTCLDY    66  19  16 W7        29.85R
ALBUQUERQUE    PTCLDY    57  16  20 NW7       29.91R
CANNON AFB     MOCLDY    68  25  19 NW22G29   29.74R
CLOVIS         PTCLDY    68  21  17 W20G25    29.76R
HOLLOMAN AFB   PTCLDY    69  23  17 W10       29.83R
ROSWELL        CLEAR     72  16  12 SW9       29.74R
RUIDOSO        MOCLDY    57  14  18 NW16G36   29.98R
SANTA FE       CLEAR     49  11  21 NW8       29.91R
TRUTH OR CONSE CLEAR     66   8  10 W10       29.89R
TUCUMCARI      MOCLDY    71  22  15 W28G36    29.71R
$$

USA.gov is the U.S. government's official web portal to all federal, state and local government web resources and services.